Weather Roundup
Issued by NWS Chicago, IL

Home | Current Version | Previous Version | Graphics & Text | Print | Product List | Glossary On
Versions: 1 2 3 4 5 6 7 8 9 10 11 12 13 14 15 16 17 18 19 20 21 22 23 24 25 26 27 28 29 30 31 32 33 34 35 36 37 38 39 40 41 42 43 44 45 46 47 48 49 50
000
NZUS59 KLOT 202210
HRRLOT

CHICAGO AREA WEATHER ROUNDUP
NATIONAL WEATHER SERVICE CHICAGO/ROMEOVILLE IL
400 PM CST SAT DEC 20 2014

NOTE: "FAIR" INDICATES FEW OR NO CLOUDS BELOW 12,000 FEET WITH NO
SIGNIFICANT WEATHER AND/OR OBSTRUCTIONS TO VISIBILITY.

* THESE STATIONS ARE NOT UNDER NWS QUALITY CONTROL. THEY ALSO MAY NOT
  REPORT WEATHER SUCH AS PRECIPITATION OR FOG.

ILZ005-006-012>014-019>023-202300-
NORTHEAST ILLINOIS

CITY           SKY/WX    TMP DP  RH WIND       PRES   REMARKS
OHARE          FLURRIES  32  23  69 S7        30.24R WCI  26
MIDWAY         CLOUDY    34  25  69 S5        30.25S WCI  30
AURORA         CLOUDY    33  26  75 S5        30.24S HAZE    WCI  29
LANSING*       CLOUDY    32  26  77 SW5       30.26S WCI  28
JOLIET*        CLOUDY    32  26  77 S3        30.25S
WAUKEGAN       CLOUDY    31  24  75 SW5       30.23S WCI  26
DUPAGE AIRPORT CLOUDY    32  25  75 S5        30.23S WCI  27
WHEELING       CLOUDY    33  23  66 SW5       30.26R WCI  29
KANKAKEE*      CLOUDY    33  27  79 CALM      30.26F
MORRIS*        CLOUDY    33  29  85 S5        30.25R WCI  28
LEWIS AIRPORT* CLOUDY    32  26  77 S5        30.25S WCI  28
NORTHERLY IS     N/A     33  24  70 S3          N/A
$$

WIZ051-052-058>065-066-070>072-202300-
SOUTHEAST WISCONSIN

CITY           SKY/WX    TMP DP  RH WIND       PRES   REMARKS
MILWAUKEE      CLOUDY    31  22  69 SW5       30.24R WCI  26
KENOSHA*       CLOUDY    32  25  75 CALM      30.23S
RACINE*        CLOUDY    31  24  75 W3        30.26R
BURLINGTON     CLOUDY    30  24  81 CALM      30.22F
WAUKESHA       FLURRIES  28  23  80 CALM      30.24R
WEST BEND      FLURRIES  30  23  74 CALM      30.23S
$$

INZ001>003-010>013-019-020-202300-
NORTHWEST INDIANA

CITY           SKY/WX    TMP DP  RH WIND       PRES   REMARKS
GARY*          CLOUDY    34  23  64 SW7       30.27R WCI  28
MICHIGAN CITY* NOT AVBL
RENSSELAER*    NOT AVBL
VALPARAISO     CLOUDY    32  24  72 SW3       30.26S
$$

LMZ740>746-202300-
SOUTHERN LAKE MICHIGAN

STATION/POSITION TIME  SKY/WX   TEMP WIND        PRES    VSBY
                                AIR  DIR/SP/G
                 (UTC)          (F)  (DEG/KT/KT) (MB)    (MI)
HARRISON CRIB    2200            33  230/  7/ 11   N/A
BURNHAM HARBOR   2200            33  210/  5/  7   N/A
CALUMET HARBOR   2200            33  210/  4/  6 1023.3R
BURNS HARBOR     NOT AVBL
MICHIGAN CITY    NOT AVBL
$$

ABBREVIATIONS USED IN REMARKS
   TC - TEMPERATURE IN CELSIUS
  WCI - WIND CHILL INDEX
   HX - HEAT INDEX
  VSB - VISIBILITY
$$


USA.gov is the U.S. government's official web portal to all federal, state and local government web resources and services.